TimeCDT,TemperatureF,Dew PointF,Humidity,Sea Level PressureIn,VisibilityMPH,Wind Direction,Wind SpeedMPH,Gust SpeedMPH,PrecipitationIn,Events,Conditions,WindDirDegrees,DateUTC
12:15 AM,42.8,28.4,57,30.24,10.0,North,6.9,-,N/A,,Clear,10,2014-05-15 05:15:00
12:35 AM,42.8,28.4,57,30.23,10.0,North,5.8,-,N/A,,Clear,360,2014-05-15 05:35:00
12:55 AM,41.0,28.4,61,30.23,10.0,North,5.8,-,N/A,,Clear,360,2014-05-15 05:55:00
1:15 AM,39.2,28.4,65,30.22,10.0,NNW,4.6,-,N/A,,Clear,340,2014-05-15 06:15:00
1:35 AM,39.2,28.4,65,30.22,10.0,North,5.8,-,N/A,,Clear,350,2014-05-15 06:35:00
1:55 AM,39.2,28.4,65,30.21,10.0,North,6.9,-,N/A,,Clear,350,2014-05-15 06:55:00
2:15 AM,37.4,28.4,70,30.21,10.0,North,6.9,-,N/A,,Clear,350,2014-05-15 07:15:00
2:35 AM,37.4,28.4,70,30.21,10.0,North,6.9,-,N/A,,Clear,350,2014-05-15 07:35:00
2:55 AM,37.4,30.2,75,30.20,10.0,North,6.9,-,N/A,,Clear,350,2014-05-15 07:55:00
3:15 AM,37.4,30.2,75,30.20,10.0,North,6.9,-,N/A,,Clear,350,2014-05-15 08:15:00
3:35 AM,35.6,30.2,81,30.20,10.0,NNW,5.8,-,N/A,,Clear,340,2014-05-15 08:35:00
3:55 AM,35.6,30.2,81,30.19,10.0,North,8.1,-,N/A,,Clear,350,2014-05-15 08:55:00
4:15 AM,35.6,28.4,75,30.19,10.0,NNW,6.9,-,N/A,,Clear,340,2014-05-15 09:15:00
4:35 AM,35.6,28.4,75,30.19,10.0,NNW,8.1,-,N/A,,Clear,340,2014-05-15 09:35:00
4:55 AM,35.6,28.4,75,30.19,10.0,North,8.1,-,N/A,,Clear,350,2014-05-15 09:55:00
5:15 AM,35.6,28.4,75,30.19,10.0,NNW,8.1,-,N/A,,Mostly Cloudy,340,2014-05-15 10:15:00
5:35 AM,35.6,28.4,75,30.19,10.0,NNW,9.2,-,N/A,,Mostly Cloudy,340,2014-05-15 10:35:00
5:55 AM,35.6,28.4,75,30.18,10.0,NNW,9.2,-,N/A,,Overcast,330,2014-05-15 10:55:00
6:15 AM,35.6,28.4,75,30.18,10.0,NNW,10.4,-,N/A,,Mostly Cloudy,340,2014-05-15 11:15:00
6:35 AM,35.6,28.4,75,30.19,10.0,NNW,9.2,-,N/A,,Scattered Clouds,340,2014-05-15 11:35:00
6:55 AM,35.6,30.2,81,30.19,10.0,NNW,10.4,-,N/A,,Clear,340,2014-05-15 11:55:00
7:15 AM,37.4,30.2,75,30.19,10.0,North,9.2,-,N/A,,Clear,350,2014-05-15 12:15:00
7:35 AM,37.4,30.2,75,30.19,10.0,NNW,10.4,-,N/A,,Clear,340,2014-05-15 12:35:00
7:55 AM,39.2,30.2,70,30.19,10.0,NNW,10.4,-,N/A,,Clear,340,2014-05-15 12:55:00
8:15 AM,41.0,30.2,65,30.19,10.0,NNW,12.7,19.6,N/A,,Scattered Clouds,340,2014-05-15 13:15:00
8:35 AM,39.2,28.4,65,30.19,10.0,North,15.0,19.6,N/A,,Overcast,350,2014-05-15 13:35:00
8:55 AM,41.0,30.2,65,30.20,10.0,NNW,12.7,-,N/A,,Overcast,340,2014-05-15 13:55:00
9:15 AM,42.8,30.2,61,30.20,10.0,NNW,13.8,18.4,N/A,,Overcast,330,2014-05-15 14:15:00
9:35 AM,44.6,30.2,57,30.19,10.0,North,15.0,18.4,N/A,,Overcast,350,2014-05-15 14:35:00
9:55 AM,44.6,30.2,57,30.19,10.0,NNW,13.8,21.9,N/A,,Overcast,330,2014-05-15 14:55:00
10:15 AM,44.6,26.6,49,30.19,10.0,North,16.1,19.6,N/A,,Overcast,350,2014-05-15 15:15:00
10:35 AM,44.6,28.4,53,30.19,10.0,NNW,13.8,19.6,N/A,,Overcast,340,2014-05-15 15:35:00
10:55 AM,44.6,26.6,49,30.19,10.0,North,13.8,19.6,N/A,,Overcast,350,2014-05-15 15:55:00
11:15 AM,44.6,26.6,49,30.20,10.0,North,11.5,-,N/A,,Overcast,360,2014-05-15 16:15:00
11:35 AM,44.6,26.6,49,30.20,10.0,North,12.7,17.3,N/A,,Overcast,360,2014-05-15 16:35:00
11:55 AM,44.6,26.6,49,30.19,10.0,North,12.7,19.6,N/A,,Overcast,350,2014-05-15 16:55:00
12:35 PM,44.6,26.6,49,30.19,10.0,North,13.8,18.4,N/A,,Overcast,350,2014-05-15 17:35:00
12:55 PM,46.4,26.6,46,30.19,10.0,NNW,12.7,20.7,N/A,,Overcast,340,2014-05-15 17:55:00
1:15 PM,46.4,24.8,43,30.19,10.0,NNW,10.4,-,N/A,,Overcast,340,2014-05-15 18:15:00
2:15 PM,46.4,26.6,46,30.18,10.0,North,15.0,23.0,N/A,,Overcast,350,2014-05-15 19:15:00
2:55 PM,46.4,26.6,46,30.18,10.0,North,10.4,-,N/A,,Overcast,10,2014-05-15 19:55:00
3:15 PM,46.4,26.6,46,30.18,10.0,North,11.5,20.7,N/A,,Overcast,350,2014-05-15 20:15:00
3:35 PM,46.4,26.6,46,30.18,10.0,North,11.5,19.6,N/A,,Overcast,10,2014-05-15 20:35:00
3:55 PM,46.4,24.8,43,30.17,10.0,North,10.4,16.1,N/A,,Overcast,360,2014-05-15 20:55:00
4:15 PM,46.4,24.8,43,30.17,10.0,North,12.7,19.6,N/A,,Overcast,350,2014-05-15 21:15:00
4:35 PM,46.4,26.6,46,30.16,10.0,NNW,12.7,19.6,N/A,,Overcast,340,2014-05-15 21:35:00
4:55 PM,46.4,24.8,43,30.16,10.0,North,11.5,18.4,N/A,,Overcast,350,2014-05-15 21:55:00
5:15 PM,46.4,24.8,43,30.16,10.0,North,8.1,20.7,N/A,,Overcast,360,2014-05-15 22:15:00
5:35 PM,46.4,24.8,43,30.16,10.0,NNW,11.5,17.3,N/A,,Overcast,340,2014-05-15 22:35:00
5:55 PM,46.4,24.8,43,30.16,10.0,North,12.7,17.3,N/A,,Overcast,350,2014-05-15 22:55:00
6:15 PM,46.4,26.6,46,30.16,10.0,NNW,8.1,16.1,N/A,,Overcast,340,2014-05-15 23:15:00
6:35 PM,46.4,26.6,46,30.16,10.0,North,8.1,-,N/A,,Overcast,360,2014-05-15 23:35:00
6:55 PM,46.4,24.8,43,30.16,10.0,North,12.7,-,N/A,,Overcast,350,2014-05-15 23:55:00
7:15 PM,46.4,24.8,43,30.16,10.0,North,11.5,16.1,N/A,,Overcast,10,2014-05-16 00:15:00
7:35 PM,46.4,24.8,43,30.16,10.0,North,9.2,-,N/A,,Overcast,360,2014-05-16 00:35:00
7:55 PM,46.4,23.0,40,30.16,10.0,North,8.1,-,N/A,,Overcast,360,2014-05-16 00:55:00
8:15 PM,46.4,24.8,43,30.17,10.0,North,8.1,-,N/A,,Overcast,360,2014-05-16 01:15:00
8:35 PM,44.6,24.8,46,30.17,10.0,North,8.1,16.1,N/A,,Overcast,360,2014-05-16 01:35:00
8:55 PM,44.6,24.8,46,30.17,10.0,North,8.1,-,N/A,,Mostly Cloudy,350,2014-05-16 01:55:00
9:15 PM,44.6,21.2,39,30.17,10.0,North,5.8,-,N/A,,Clear,360,2014-05-16 02:15:00
9:35 PM,42.8,23.0,46,30.17,10.0,North,4.6,-,N/A,,Clear,360,2014-05-16 02:35:00
9:55 PM,42.8,24.8,49,30.17,10.0,North,4.6,-,N/A,,Clear,360,2014-05-16 02:55:00
10:15 PM,42.8,24.8,49,30.17,10.0,North,3.5,-,N/A,,Clear,10,2014-05-16 03:15:00
10:35 PM,41.0,26.6,57,30.17,10.0,Calm,Calm,-,N/A,,Clear,0,2014-05-16 03:35:00
10:55 PM,39.2,24.8,56,30.17,10.0,NNW,3.5,-,N/A,,Clear,340,2014-05-16 03:55:00
11:15 PM,37.4,26.6,65,30.17,10.0,NNW,3.5,-,N/A,,Clear,340,2014-05-16 04:15:00
11:35 PM,39.2,26.6,61,30.16,10.0,North,3.5,-,N/A,,Clear,360,2014-05-16 04:35:00
11:55 PM,39.2,26.6,61,30.15,10.0,NNW,3.5,-,N/A,,Clear,340,2014-05-16 04:55:00